sat.trackr.live / text

‹ back to catalog

STARLINK-32905

NORAD 62923 · 2025-027S

PAYLOAD ACTIVE UNKNOWN

§ Identity

Operator
Country
US
Launch date
2025-02-08
Launch site
AFETR
Launch vehicle
Mass (kg)
RCS (m²)

Purposes: comms

External: N2YO · Heavens-Above · Gunter

§ Orbital elements

Epoch: 2026-09-20T22:59:29.796864Z

Period
94.27 min
Inclination
43.0036°
Eccentricity
0.0001971
Mean motion
15.27588564 rev/d
Perigee alt
481.7 km
Apogee alt
484.4 km
Semi-major
6,861.2 km
B*
5.7533e-4
RAAN
106.3067°
Arg perigee
257.9086°
Mean anomaly
102.1545°
Rev number
9,140

§ Raw data

STARLINK-329051 62923U 25027S   26263.95798376  .00015607  00000+0  57533-3 0  99952 62923  43.0036 106.3067 0001971 257.9086 102.1545 15.27588564 91401

JSON: /api/v1/satellites/62923 · /tle

For live sub-satellite position, see the globe view (requires WebGL).

§ Visibility from observer

Set your observer location to see the next 7 days of passes ≥ 10°. The values pass through the URL so the page stays shareable.

No JS? Fill the form by hand. The geolocation button needs JavaScript.